Location: Aalen
(48.8330°N, 10.1000°E)
Time: 09:09:58
(UTC+01:00)

N. Korean satellite - Pass Details

Date: 05 December 2022
Orbit: 407 x 442 km, 97.3° (Epoch: 04 February)

Event Time Altitude Azimuth Distance (km) Brightness Sun altitude
Rises 06:57:29 0° 356° (N) 2,520 9.9 -9.3°
Reaches altitude 10° 07:00:13 10° 333° (NNW) 1,632 8.8 -8.9°
Maximum altitude 07:02:14 15° 297° (WNW) 1,353 8.1 -8.6°
Drops below altitude 10° 07:04:14 10° 262° (W) 1,612 8.7 -8.3°
Sets 07:06:56 0° 238° (WSW) 2,469 9.8 -7.9°
